Miscellaneous Local Product
Issued by NWS Hastings, NE

Home | Current Version | Previous Version | Text Only | Print | Product List | Glossary On
Versions: 1 2 3 4 5 6 7 8 9 10 11 12 13 14 15 16 17 18 19 20 21 22 23 24 25 26 27 28 29 30 31 32 33 34 35 36 37 38 39 40 41 42 43 44 45 46 47 48 49 50
000
AXUS43 KGID 220402
MISGRI

GID CWA HOURLY WEATHER ROUNDUP
NATIONAL WEATHER SERVICE HASTINGS NE
1100 PM CDT SAT OCT 21 2017

NOTE: "FAIR" INDICATES FEW OR NO CLOUDS BELOW 12,000 FEET WITH NO
SIGNIFICANT WEATHER AND/OR OBSTRUCTIONS TO VISIBILITY.

...SOUTH CENTRAL NEBRASKA...

CITY           SKY/WX    TMP DP  RH WIND       PRES   REMARKS
GRAND ISLAND   CLEAR     43  40  89 W3        30.02R
KEARNEY        PTCLDY    41  34  76 CALM      30.02S
HASTINGS       CLOUDY    43  37  79 SW3       30.02S
ORD            CLEAR     36  32  85 NW6       30.01R WCI  31
YORK           MOCLDY    43  39  87 CALM      30.01R
AURORA         CLOUDY    42  38  87 W5        30.01R
LEXINGTON      CLEAR     37  29  73 W7        30.03S WCI  32
HOLDREGE       CLOUDY    42  33  68 W5        30.02F
HEBRON         CLOUDY    48  41  75 CALM      30.03R

...NEBRASKA PANHANDLE...

CITY           SKY/WX    TMP DP  RH WIND       PRES   REMARKS
CHADRON        CLEAR     32  13  45 SW7       30.02R WCI  26
ALLIANCE       CLEAR     30  19  63 NW6       30.05R HAZE    WCI  24
SCOTTSBLUFF    CLEAR     43  17  35 W9        30.07R
SIDNEY         CLEAR     36  16  44 W9        30.11R WCI  29

...WESTERN AND NORTH CENTRAL NEBRASKA...

CITY           SKY/WX    TMP DP  RH WIND       PRES   REMARKS
VALENTINE      CLEAR     36  29  75 W5        29.99S WCI  32
AINSWORTH      CLEAR     37  31  78 SW6       30.01R WCI  32
ONEILL         CLEAR     39  32  77 SW5       30.01R
BROKEN BOW     CLEAR     34  27  75 CALM      30.01R
IMPERIAL       CLEAR     44  20  38 W7        30.08R
NORTH PLATTE   CLEAR     34  27  75 CALM      30.06R
MCCOOK         CLEAR     42  26  53 W13       30.05R

...EASTERN NEBRASKA...

CITY           SKY/WX    TMP DP  RH WIND       PRES   REMARKS
NORFOLK        CLEAR     38  35  89 CALM      30.00R
SO SIOUX CITY  PTCLDY    41  39  93 W5        29.96R
TEKAMAH        CLOUDY    46  40  79 CALM      29.98R
COLUMBUS       CLOUDY    40  37  89 W3        30.02R
ALBION         CLOUDY    36  34  93 CALM      30.01R
OMAHA EPPLEY   CLOUDY    52  40  63 N3        29.99R
MILLARD        CLOUDY    52  42  67 NW5       29.99R
LINCOLN        CLOUDY    51  39  63 CALM      30.01R
NEBRASKA CITY  CLOUDY    54  41  62 N7        29.99S
BEATRICE       CLOUDY    49  43  79 NW3       30.00F
FALLS CITY     CLOUDY    54  44  69 NW8       29.99R

...NORTHERN KANSAS...

CITY           SKY/WX    TMP DP  RH WIND       PRES   REMARKS
GOODLAND       CLEAR     40  17  39 NW9       30.09R WCI  34
HILL CITY      CLOUDY    39  35  86 W5        30.05R
NORTON         CLEAR     37  25  60 W10       30.03S WCI  30
PHILLIPSBURG   CLEAR     39  36  87 W5        30.04S
SMITH CENTER   CLOUDY    37  36  93 NW3       30.03F
HAYS           PTCLDY    44  37  76 W5        30.06R
RUSSELL        CLOUDY    50  41  71 N6        30.02R
CONCORDIA      MOCLDY    50  41  71 N5        30.02R
SALINA         CLOUDY    57  41  55 N12       30.02R
TOPEKA         RAIN      53  52  96 NW6       29.99R



USA.gov is the U.S. government's official web portal to all federal, state and local government web resources and services.